Back to catalog

STARLINK-37926

AliveCommunicationsSSO
NORAD 69695·PAYLOAD·🇺🇸 United States

Launched Jun 25, 2026 from Vandenberg Space Force Base

Loading…

Next Passes (next 24 hours)

TLE

FreshSource: CelesTrak SupGP

Epoch: Sep 14, 2026, 22:46 UTC

1 69695C 26145U   26257.94909722  .00091446  00000+0  28393-2 0  2574
2 69695  97.2846 104.7297 0001662  92.9166 312.6345 15.33385954    12

Track STARLINK-37926 in real time with AllMySat

Download on the App Store